sat.trackr.live / text

‹ back to catalog

ONEWEB-0321

NORAD 49191 · 2021-083F

PAYLOAD ACTIVE UNKNOWN

§ Identity

Operator
Country
UK
Launch date
2021-09-14
Launch site
TYMSC
Launch vehicle
Mass (kg)
RCS (m²)

Purposes: comms

External: N2YO · Heavens-Above · Gunter

§ Orbital elements

Epoch: 2026-05-25T02:17:07.173888Z

Period
109.03 min
Inclination
87.9173°
Eccentricity
0.0001613
Mean motion
13.20770313 rev/d
Perigee alt
1,180.6 km
Apogee alt
1,183.0 km
Semi-major
7,559.9 km
B*
1.4039e-4
RAAN
279.0391°
Arg perigee
97.8356°
Mean anomaly
262.2960°
Rev number
23,378

§ Raw data

ONEWEB-03211 49191U 21083F   26145.09522192  .00000070  00000+0  14039-3 0  99922 49191  87.9173 279.0391 0001613  97.8356 262.2960 13.20770313233788

JSON: /api/v1/satellites/49191 · /tle

For live sub-satellite position, see the globe view (requires WebGL).

§ Visibility from observer

Set your observer location to see the next 7 days of passes ≥ 10°. The values pass through the URL so the page stays shareable.

No JS? Fill the form by hand. The geolocation button needs JavaScript.